Regional Weather Roundup
Issued by NWS Midland/Odessa, TX

Skip options and go directly to product.
Home | Oldest Version | Previous Version | Current Version | All | Graphics & Text | Save Text | Print | Product List | Glossary On

Skip product version selection by date and time.   
753
ASUS44 KMAF 191710
RWRMAF
MIDLAND AREA WEATHER ROUNDUP
NATIONAL WEATHER SERVICE MIDLAND TX
1200 PM CDT SAT APR 19 2014

...IN SOUTHWEST TEXAS AND SOUTHEAST NEW MEXICO...

CITY           SKY/WX    TMP DP  RH WIND       PRES   REMARKS
ALPINE         PTSUNNY   74  47  37 S14       30.15F
ANDREWS        FAIR      71  54  55 SE15G22   30.08F
ARTESIA        LGT RAIN  55  55 100 SE8       30.08F
BIG SPRING     CLOUDY    72  54  53 S21G26    30.14R
CARLSBAD       CLOUDY    60  55  83 NE7       30.08R
DRYDEN           N/A     78  55  44 SE17      30.07F
FORT STOCKTON  MOSUNNY   66  54  65 SE17G28   30.08S
GUAD PASS      NOT AVBL
HOBBS          PTSUNNY   64  54  68 S10       30.11R
MARFA          PTSUNNY   63  50  63 S10G24    30.16R THUNDER
MIDLAND AIRPK  PTSUNNY   71  54  55 S21G26    30.10S
MIDLAND INTL   PTSUNNY   72  54  53 S24G31    30.09F
ODESSA         PTSUNNY   70  55  59 S18G29    30.08F
PECOS          MOSUNNY   74  51  43 E8        30.03F
PRESIDIO       FAIR      75  50  41 SE7       30.03F
SEMINOLE       CLOUDY    65  53  65 SE13      30.09F
SNYDER         CLOUDY    69  55  60 SE20G25   30.13R
WINK           PTSUNNY   71  55  56 SE16G23   30.05R
$$
...OTHER STATIONS IN TEXAS...

CITY           SKY/WX    TMP DP  RH WIND       PRES   REMARKS
ABILENE        PTSUNNY   73  52  47 S15G23    30.14F
AMARILLO       MOSUNNY   72  49  44 S24G30    30.08F
AUSTIN         PTSUNNY   74  56  53 SE9       30.17F
BROWNSVILLE    CLOUDY    76  65  68 E10       30.13F
CORPUS CHRISTI PTSUNNY   76  60  57 E13       30.15S
DALLAS FTW     PTSUNNY   76  54  46 SE12      30.18F
DEL RIO        CLOUDY    70  50  49 SE14      30.12F
EL PASO        PTSUNNY   69  50  50 NW12      30.06S
HOUSTON INT    MOSUNNY   75  57  53 SE8       30.19F
LUBBOCK        CLOUDY    67  52  58 S20       30.12R
SAN ANGELO     CLOUDY    69  52  54 SE15G26   30.13S
SAN ANTONIO    PTSUNNY   74  55  51 E9        30.17F
WACO           SUNNY     74  57  55 SE10      30.18F
WICHITA FALLS  NOT AVBL
$$
...OTHER LOCATIONS IN NEW MEXICO...

CITY           SKY/WX    TMP DP  RH WIND       PRES   REMARKS
ALAMAGORDO     CLOUDY    61  50  67 N5        30.13R
ALBUQUERQUE    CLOUDY    53  44  71 E9        30.15F
CANNON AFB     MOSUNNY   68  47  47 S16       30.11R
CLOVIS         SUNNY     68  48  49 S15       30.14R
HOLLOMAN AFB   CLOUDY    61  53  75 CALM      30.12R
ROSWELL        LGT RAIN  56  54  93 E3        30.11F
RUIDOSO        LGT RAIN  50  41  71 SE10      30.23R
SANTA FE       PTSUNNY   59  35  40 VRB3      30.16S
TRUTH OR CONSE LGT RAIN  52  47  83 W5        30.18R
TUCUMCARI      SUNNY     73  45  36 MISG      30.05R
$$

USA.gov is the U.S. government's official web portal to all federal, state and local government web resources and services.